星链-2624 (STARLINK-2624 )

导读 | 星芒AI

STARLINK-2624 是 SpaceX 星链计划中的一颗低轨通信卫星,属于第26批发射的星链卫星群。该卫星旨在为全球用户提供高速互联网服务,支持偏远地区的网络接入。它运行在约550公里高的近地轨道,采用先进的推进和通信技术,具备自动避碰功能,以确保太空安全。作为星链星座的一部分,STARLINK-2624 有助于提升全球互联网覆盖范围和连接质量。

基本信息
目录编号:
48358
目录名称:
STARLINK-2624
国际标识:
2021-038F
轨道中心:
EARTH
卫星名称:
星链-2624
卫星全名:
星链-2624 (STARLINK-2624 )
卫星状态:
在轨 (已飞行1640 天)
发射日期:
2021-05-04 UTC
国别 :
美国 (US)
星等 :
--
轨道信息
数据来源 国际轨道数据
星历时间: 2025-10-30T09:54:21+0800
11小时前
查看轨道信息
半长轴: 6925.386km
偏心率: 0.0001349
轨道倾角: 53.053°
近地点辐角 80.087°
升交点赤经 227.952°
平近点角 280.027°
近地点: 546.316km
远地点: 548.186km
周期: 95.593分钟
每日圈数: 15.063881
详细信息
固有亮度:
5
最大亮度:
2.5
卫星平台:
Starlink V1.0
覆盖范围:
全球
运营商:
太空探索技术公司
运营商所在国:
美国
制造商(研发单位):
太空探索技术公司
制造商所在国:
美国
使用方式:
暂无
卫星简介
星链(Starlink)计划是由太空探索技术公司(SpaceX)提出的一个巨型低轨卫星互联网星座项目,计划在2019年至2024年间在太空搭建由约1.2万颗卫星组成的“星链”网络,其中1584颗将部署在地球上空550千米处的近地轨道,并从2020年开始工作。该卫星仍在工作。
2D轨道图
3D轨道图
轨道高度分析图
轨道倾角分析图
轨道综合分析图
查看轨道综合分析图